Humidity-temperature Sensor

Selected Measurement Type: Relative Humidity

 
Relative Humidity [%]     6 entries per hour
Showing data from 4/27/2015 (18:00:00 Z) to 4/24/2015 (00:01:00 Z)
Previous Next [ Day | 3-Days | 7-Days ]
First Last
Prev [ Day | 3-Days | 7-Days ] Next
First Last

Start Time:     :
End Time:     :     
Time (in GMT) :00 :50 :40 :30 :20 :10
Previous Next [ Day | 3-Days | 7-Days ]
First Last
Prev [ Day | 3-Days | 7-Days ] Next
First Last


123 => good data
MM => data is determined as missing
-- => data not received/configured
Back to Top Back to Top
4/27/2015 18:00 to 17:10 86.11 86.36 87.64 88.96 89.51 89.68
4/27/2015 17:00 to 16:10 88.89 89.22 88.91 86.69 86.13 82.50
4/27/2015 16:00 to 15:10 76.75 77.10 76.07 76.23 74.99 74.44
4/27/2015 15:00 to 14:10 74.31 73.53 74.64 74.39 74.66 74.99
4/27/2015 14:00 to 13:10 74.95 76.09 76.11 76.68 76.73 77.47
4/27/2015 13:00 to 12:10 77.69 77.72 76.85 76.91 76.75 76.85
4/27/2015 12:00 to 11:10 77.45 77.26 77.12 75.98 76.54 76.33
4/27/2015 11:00 to 10:10 76.75 76.60 76.23 75.84 75.63 75.84
4/27/2015 10:00 to 9:10 76.07 75.57 74.23 74.25 76.40 76.85
4/27/2015 09:00 to 8:10 77.22 76.44 78.11 77.57 77.28 77.01
4/27/2015 08:00 to 7:10 77.78 77.32 75.61 76.56 77.20 77.28
4/27/2015 07:00 to 6:10 76.40 76.15 77.30 76.29 77.30 77.98
4/27/2015 06:00 to 5:10 78.35 79.06 79.72 78.83 78.02 77.76
4/27/2015 05:00 to 4:10 77.22 76.75 77.82 76.66 75.38 74.25
4/27/2015 04:00 to 3:10 74.21 74.77 76.91 76.97 78.40 78.87
4/27/2015 03:00 to 2:10 78.81 79.28 78.93 78.27 79.24 79.80
4/27/2015 02:00 to 1:10 79.20 78.99 79.74 79.49 79.14 79.30
4/27/2015 01:00 to 0:10 79.01 78.54 78.48 78.40 77.65 76.56
4/27/2015 00:00 to 23:10 76.70 76.58 77.06 76.19 77.03 76.29
4/26/2015 23:00 to 22:10 77.41 76.04 76.40 76.37 73.73 75.14
4/26/2015 22:00 to 21:10 75.08 74.79 74.52 74.99 74.99 75.61
4/26/2015 21:00 to 20:10 74.31 75.86 76.00 76.04 74.58 75.24
4/26/2015 20:00 to 19:10 74.52 73.69 73.90 74.87 74.70 74.23
4/26/2015 19:00 to 18:10 73.55 72.95 73.76 74.37 72.87 73.16
4/26/2015 18:00 to 17:10 73.49 74.19 74.02 73.78 74.25 74.31
4/26/2015 17:00 to 16:10 72.97 74.58 74.39 73.55 73.32 71.51
4/26/2015 16:00 to 15:10 72.37 74.89 74.81 73.45 74.25 73.01
4/26/2015 15:00 to 14:10 73.30 74.58 73.61 76.00 80.07 76.77
4/26/2015 14:00 to 13:10 74.00 73.94 74.04 74.39 73.84 75.12
4/26/2015 13:00 to 12:10 75.76 76.21 75.26 75.03 75.55 75.22
4/26/2015 12:00 to 11:10 74.35 74.68 75.12 74.29 74.97 76.40
4/26/2015 11:00 to 10:10 75.80 74.83 75.45 74.93 75.30 74.99
4/26/2015 10:00 to 9:10 75.53 75.55 75.32 75.26 73.84 73.98
4/26/2015 09:00 to 8:10 74.04 75.36 73.94 71.82 72.44 74.19
4/26/2015 08:00 to 7:10 -- -- -- -- -- --
4/26/2015 07:00 to 6:10 73.82 72.15 71.67 72.56 72.29 74.04
4/26/2015 06:00 to 5:10 -- -- -- -- -- --
4/26/2015 05:00 to 4:10 72.64 73.01 74.29 76.66 78.46 78.31
4/26/2015 04:00 to 3:10 78.48 77.94 77.26 76.70 76.60 77.30
4/26/2015 03:00 to 2:10 75.92 77.06 76.37 76.31 76.87 79.59
4/26/2015 02:00 to 1:10 79.20 78.09 77.34 77.01 76.60 75.84
4/26/2015 01:00 to 0:10 77.28 75.78 76.52 76.79 77.47 77.65
4/26/2015 00:00 to 23:10 78.02 77.16 75.90 76.54 76.44 76.68
4/25/2015 23:00 to 22:10 76.07 77.22 77.01 76.64 76.66 77.47
4/25/2015 22:00 to 21:10 77.82 76.99 76.31 75.67 74.77 75.92
4/25/2015 21:00 to 20:10 75.38 75.59 75.22 74.79 74.81 73.98
4/25/2015 20:00 to 19:10 76.42 75.24 75.84 75.76 75.12 74.48
4/25/2015 19:00 to 18:10 74.37 74.13 74.60 75.82 75.30 76.29
4/25/2015 18:00 to 17:10 76.70 78.66 74.93 73.36 74.99 76.50
4/25/2015 17:00 to 16:10 79.26 80.56 78.29 79.41 78.77 77.12
4/25/2015 16:00 to 15:10 77.67 79.10 78.97 79.14 78.27 76.68
4/25/2015 15:00 to 14:10 76.93 78.07 77.45 77.96 78.97 80.09
4/25/2015 14:00 to 13:10 80.85 80.81 80.93 80.77 81.92 83.94
4/25/2015 13:00 to 12:10 85.90 84.25 79.88 80.48 80.97 82.54
4/25/2015 12:00 to 11:10 85.35 85.06 83.82 83.80 80.11 83.06
4/25/2015 11:00 to 10:10 83.45 84.19 84.01 83.78 83.43 82.07
4/25/2015 10:00 to 9:10 81.70 82.71 82.93 82.56 77.24 78.79
4/25/2015 09:00 to 8:10 78.95 78.50 79.10 78.87 78.17 78.58
4/25/2015 08:00 to 7:10 80.33 84.17 83.99 83.90 82.89 81.37
4/25/2015 07:00 to 6:10 80.89 80.09 80.36 81.55 81.90 84.85
4/25/2015 06:00 to 5:10 86.83 82.11 81.39 80.44 80.95 82.17
4/25/2015 05:00 to 4:10 82.60 83.96 83.61 83.47 83.06 83.30
4/25/2015 04:00 to 3:10 82.75 82.36 83.08 83.12 83.86 82.44
4/25/2015 03:00 to 2:10 82.52 82.77 82.71 84.01 84.27 82.05
4/25/2015 02:00 to 1:10 81.10 80.36 81.98 82.40 81.84 82.27
4/25/2015 01:00 to 0:10 83.02 82.03 82.34 82.67 83.24 82.97
4/25/2015 00:00 to 23:10 82.52 83.72 82.36 85.82 83.90 80.46
4/24/2015 23:00 to 22:10 81.47 81.51 78.25 77.88 78.29 79.08
4/24/2015 22:00 to 21:10 78.50 78.89 80.00 79.10 78.48 78.75
4/24/2015 21:00 to 20:10 79.28 79.18 78.93 79.94 80.60 80.25
4/24/2015 20:00 to 19:10 80.19 80.19 79.39 79.45 79.14 78.75
4/24/2015 19:00 to 18:10 79.04 78.71 79.78 80.31 80.83 80.73
4/24/2015 18:00 to 17:10 80.99 80.58 79.67 79.88 79.55 80.15
4/24/2015 17:00 to 16:10 79.22 79.20 78.21 78.66 80.42 79.47
4/24/2015 16:00 to 15:10 79.63 84.36 86.34 84.85 80.05 78.44
4/24/2015 15:00 to 14:10 79.90 80.95 80.11 79.63 80.89 83.24
4/24/2015 14:00 to 13:10 82.69 82.67 85.35 86.69 85.68 84.79
4/24/2015 13:00 to 12:10 84.71 86.50 87.02 87.90 86.19 85.39
4/24/2015 12:00 to 11:10 83.16 82.85 85.06 85.55 84.87 84.36
4/24/2015 11:00 to 10:10 83.39 81.49 81.59 82.95 86.07 86.77
4/24/2015 10:00 to 9:10 87.47 87.62 87.47 84.21 82.83 84.36
4/24/2015 09:00 to 8:10 84.36 85.55 84.95 85.08 84.83 85.24
4/24/2015 08:00 to 7:10 85.26 86.07 85.14 84.27 82.89 83.20
4/24/2015 07:00 to 6:10 83.99 85.02 84.93 84.77 84.44 86.01
4/24/2015 06:00 to 5:10 88.30 87.00 85.88 86.89 87.16 87.45
4/24/2015 05:00 to 4:10 87.70 87.49 87.37 87.31 86.77 86.17
4/24/2015 04:00 to 3:10 86.52 87.26 87.62 87.62 87.78 85.88
4/24/2015 03:00 to 2:10 82.64 83.14 83.47 83.88 84.38 81.06
4/24/2015 02:00 to 1:10 80.46 79.57 80.21 80.66 81.06 80.62
4/24/2015 01:00 to 0:10 80.62 79.82 80.71 80.89 80.36 79.57